TimeCDT,TemperatureF,Dew PointF,Humidity,Sea Level PressureIn,VisibilityMPH,Wind Direction,Wind SpeedMPH,Gust SpeedMPH,PrecipitationIn,Events,Conditions,WindDirDegrees,DateUTC
12:13 AM,51.8,48.2,88,29.99,0.5,Calm,Calm,-,N/A,Fog,Fog,0,2013-09-26 05:13:00
12:33 AM,51.8,48.2,88,29.99,0.5,NE,5.8,-,N/A,Fog,Fog,50,2013-09-26 05:33:00
12:53 AM,51.8,48.2,88,29.99,0.5,NE,4.6,-,N/A,Fog,Fog,50,2013-09-26 05:53:00
1:13 AM,51.8,48.2,88,30.00,0.8,Calm,Calm,-,N/A,,Overcast,0,2013-09-26 06:13:00
1:33 AM,51.8,48.2,88,30.00,0.8,East,4.6,-,N/A,,Overcast,90,2013-09-26 06:33:00
1:53 AM,51.8,48.2,88,29.99,0.8,NE,3.5,-,N/A,,Overcast,40,2013-09-26 06:53:00
2:13 AM,51.8,48.2,88,29.99,0.5,Calm,Calm,-,N/A,Fog,Fog,0,2013-09-26 07:13:00
2:33 AM,51.8,48.2,88,29.99,0.2,Calm,Calm,-,N/A,Fog,Fog,0,2013-09-26 07:33:00
2:53 AM,51.8,48.2,88,30.00,0.5,Calm,Calm,-,N/A,Fog,Fog,0,2013-09-26 07:53:00
3:13 AM,51.8,48.2,88,29.99,0.5,Calm,Calm,-,N/A,Fog,Fog,0,2013-09-26 08:13:00
3:33 AM,51.8,48.2,88,30.00,0.8,Calm,Calm,-,N/A,,Overcast,0,2013-09-26 08:33:00
3:53 AM,51.8,48.2,88,29.99,0.5,NE,3.5,-,N/A,Fog,Fog,50,2013-09-26 08:53:00
4:13 AM,51.8,48.2,88,29.99,0.2,NE,5.8,-,N/A,Fog,Fog,50,2013-09-26 09:13:00
4:33 AM,51.8,48.2,88,29.99,0.5,NE,3.5,-,N/A,Fog,Fog,50,2013-09-26 09:33:00
4:53 AM,51.8,48.2,88,29.99,0.5,NE,4.6,-,N/A,Fog,Fog,50,2013-09-26 09:53:00
5:13 AM,50.0,48.2,94,29.99,0.8,ENE,3.5,-,N/A,,Overcast,70,2013-09-26 10:13:00
5:33 AM,50.0,48.2,94,29.99,2.0,Calm,Calm,-,N/A,,Overcast,0,2013-09-26 10:33:00
5:53 AM,50.0,48.2,94,30.00,2.5,Calm,Calm,-,N/A,,Overcast,0,2013-09-26 10:53:00
6:13 AM,50.0,46.4,87,30.00,0.8,NE,3.5,-,N/A,,Overcast,50,2013-09-26 11:13:00
6:33 AM,50.0,48.2,94,30.00,1.5,ENE,4.6,-,N/A,,Overcast,60,2013-09-26 11:33:00
6:53 AM,50.0,46.4,87,30.00,2.0,NE,5.8,-,N/A,,Overcast,50,2013-09-26 11:53:00
7:13 AM,50.0,46.4,87,30.00,2.0,Calm,Calm,-,N/A,,Overcast,0,2013-09-26 12:13:00
7:33 AM,50.0,46.4,87,30.00,1.2,ENE,3.5,-,N/A,,Overcast,60,2013-09-26 12:33:00
7:53 AM,50.0,48.2,94,30.02,1.5,Calm,Calm,-,N/A,,Overcast,0,2013-09-26 12:53:00
8:13 AM,51.8,48.2,88,30.02,2.0,Calm,Calm,-,N/A,,Overcast,0,2013-09-26 13:13:00
8:33 AM,51.8,48.2,88,30.02,2.5,Calm,Calm,-,N/A,,Overcast,0,2013-09-26 13:33:00
8:53 AM,51.8,48.2,88,30.01,2.5,Calm,Calm,-,N/A,,Overcast,0,2013-09-26 13:53:00
9:13 AM,51.8,48.2,88,30.01,4.0,Calm,Calm,-,N/A,,Overcast,0,2013-09-26 14:13:00
9:33 AM,53.6,48.2,82,30.02,4.0,ENE,4.6,-,N/A,,Overcast,60,2013-09-26 14:33:00
9:53 AM,53.6,48.2,82,30.02,5.0,ENE,3.5,-,N/A,,Overcast,70,2013-09-26 14:53:00
10:13 AM,53.6,48.2,82,30.02,5.0,NE,5.8,-,N/A,,Haze,50,2013-09-26 15:13:00
10:33 AM,53.6,48.2,82,30.02,7.0,East,4.6,-,N/A,,Mostly Cloudy,80,2013-09-26 15:33:00
10:53 AM,55.4,48.2,77,30.01,7.0,ENE,5.8,-,N/A,,Mostly Cloudy,60,2013-09-26 15:53:00
11:13 AM,55.4,48.2,77,30.01,7.0,NE,6.9,-,N/A,,Scattered Clouds,40,2013-09-26 16:13:00
11:33 AM,55.4,50.0,82,30.01,7.0,NE,5.8,-,N/A,,Mostly Cloudy,40,2013-09-26 16:33:00
11:53 AM,55.4,48.2,77,30.01,7.0,NE,6.9,-,N/A,,Scattered Clouds,40,2013-09-26 16:53:00
12:13 PM,55.4,48.2,77,30.01,7.0,ENE,5.8,-,N/A,,Clear,60,2013-09-26 17:13:00
12:33 PM,55.4,48.2,77,30.00,7.0,ENE,6.9,-,N/A,,Clear,70,2013-09-26 17:33:00
12:53 PM,57.2,48.2,72,30.00,7.0,ENE,9.2,-,N/A,,Clear,70,2013-09-26 17:53:00
1:13 PM,57.2,48.2,72,30.00,7.0,ENE,9.2,-,N/A,,Clear,70,2013-09-26 18:13:00
1:33 PM,57.2,48.2,72,30.00,7.0,ENE,10.4,-,N/A,,Clear,70,2013-09-26 18:33:00
1:53 PM,57.2,50.0,77,29.99,7.0,NE,8.1,-,N/A,,Clear,50,2013-09-26 18:53:00
2:13 PM,59.0,50.0,72,29.99,7.0,ENE,10.4,16.1,N/A,,Clear,70,2013-09-26 19:13:00
2:33 PM,59.0,50.0,72,29.98,7.0,NE,9.2,-,N/A,,Clear,50,2013-09-26 19:33:00
2:53 PM,55.4,48.2,77,29.98,7.0,ENE,12.7,17.3,N/A,,Scattered Clouds,70,2013-09-26 19:53:00
3:14 PM,55.4,48.2,77,29.98,7.0,ENE,13.8,17.3,N/A,,Clear,60,2013-09-26 20:14:00
3:33 PM,55.4,48.2,77,29.98,7.0,NE,10.4,16.1,N/A,,Scattered Clouds,40,2013-09-26 20:33:00
3:53 PM,55.4,48.2,77,29.98,7.0,NE,11.5,17.3,N/A,,Scattered Clouds,40,2013-09-26 20:53:00
4:13 PM,55.4,48.2,77,29.97,7.0,ENE,10.4,-,N/A,,Scattered Clouds,60,2013-09-26 21:13:00
4:33 PM,57.2,48.2,72,29.96,10.0,NE,10.4,-,N/A,,Clear,50,2013-09-26 21:33:00
4:53 PM,55.4,48.2,77,29.96,10.0,NNE,10.4,-,N/A,,Clear,30,2013-09-26 21:53:00
5:13 PM,53.6,48.2,82,29.96,7.0,NNE,11.5,16.1,N/A,,Clear,30,2013-09-26 22:13:00
5:33 PM,53.6,46.4,77,29.96,7.0,NE,9.2,16.1,N/A,,Clear,50,2013-09-26 22:33:00
5:53 PM,51.8,46.4,82,29.96,7.0,NE,8.1,16.1,N/A,,Clear,40,2013-09-26 22:53:00
6:13 PM,51.8,46.4,82,29.96,5.0,NE,9.2,-,N/A,,Clear,50,2013-09-26 23:13:00
6:33 PM,51.8,46.4,82,29.96,5.0,NE,8.1,-,N/A,,Clear,50,2013-09-26 23:33:00
6:53 PM,51.8,46.4,82,29.96,7.0,NE,6.9,-,N/A,,Clear,40,2013-09-26 23:53:00
7:13 PM,50.0,46.4,87,29.96,10.0,NE,8.1,-,N/A,,Clear,40,2013-09-27 00:13:00
7:33 PM,51.8,46.4,82,29.96,10.0,NE,6.9,-,N/A,,Clear,40,2013-09-27 00:33:00
7:53 PM,51.8,46.4,82,29.97,10.0,NE,3.5,-,N/A,,Clear,50,2013-09-27 00:53:00
8:13 PM,51.8,46.4,82,29.97,10.0,NNE,4.6,-,N/A,,Clear,30,2013-09-27 01:13:00
8:33 PM,51.8,46.4,82,29.97,10.0,Calm,Calm,-,N/A,,Clear,0,2013-09-27 01:33:00
8:53 PM,51.8,46.4,82,29.96,10.0,NNE,4.6,-,N/A,,Clear,30,2013-09-27 01:53:00
9:13 PM,51.8,46.4,82,29.97,10.0,NNE,4.6,-,N/A,,Clear,20,2013-09-27 02:13:00
9:33 PM,51.8,48.2,88,29.97,10.0,NNE,5.8,-,N/A,,Clear,30,2013-09-27 02:33:00
9:53 PM,51.8,46.4,82,29.96,10.0,NE,5.8,-,N/A,,Clear,50,2013-09-27 02:53:00
10:13 PM,51.8,46.4,82,29.97,10.0,North,5.8,-,N/A,,Clear,350,2013-09-27 03:13:00
10:33 PM,51.8,46.4,82,29.97,10.0,North,3.5,-,N/A,,Clear,350,2013-09-27 03:33:00
10:53 PM,51.8,46.4,82,29.97,10.0,North,3.5,-,N/A,,Clear,360,2013-09-27 03:53:00
11:13 PM,51.8,48.2,88,29.97,10.0,North,4.6,-,N/A,,Clear,350,2013-09-27 04:13:00
11:33 PM,51.8,48.2,88,29.98,10.0,NNW,3.5,-,N/A,,Clear,340,2013-09-27 04:33:00
11:53 PM,48.2,44.6,87,29.98,10.0,Calm,Calm,-,N/A,,Clear,0,2013-09-27 04:53:00